Regional Weather Roundup
Issued by NWS Huntsville, AL

Home | Current Version | Previous Version | Text Only | Print | Product List | Glossary On
Versions: 1 2 3 4 5 6 7 8 9 10 11 12 13 14 15 16 17 18 19 20 21 22 23 24 25 26 27 28 29 30 31 32 33 34 35 36 37 38 39 40 41 42 43 44 45 46 47 48 49 50
000
ASUS44 KHUN 301810
RWRHUN

WEATHER ROUNDUP FOR THE TENNESSEE VALLEY
NATIONAL WEATHER SERVICE HUNTSVILLE AL
100 PM CDT MON MAR 30 2015

ALZ001>004-301900-
NORTHWEST ALABAMA

CITY           SKY/WX    TMP DP  RH WIND       PRES   REMARKS
BANKHEAD NF      N/A     67  44  43 W3          N/A
SHOALS AIRPORT SUNNY     66  42  41 VRB3      30.22F
6HR MIN TEMP:  51; 6HR MAX TEMP:  66;

$$

ALZ005>007-016-301900-
NORTH CENTRAL ALABAMA

CITY           SKY/WX    TMP DP  RH WIND       PRES   REMARKS
DECATUR AP     SUNNY     66  44  45 NW9       30.21F
6HR MIN TEMP:  53; 6HR MAX TEMP:  66;

HUNTSVILLE AP  MOSUNNY   66  45  46 NW9       30.20F
6HR MIN TEMP:  55; 6HR MAX TEMP:  67;

HUN NWS/UAH      N/A     65  38  37 W5          N/A
MERIDIANVILLE  SUNNY     63  32  31 N7        30.20F
REDSTONE ARSN  MOSUNNY   65  44  46 N10       30.19F
VINEMONT AP    FAIR      64  44  48 NW7       30.22F
$$

ALZ008>010-301900-
NORTHEAST ALABAMA

CITY           SKY/WX    TMP DP  RH WIND       PRES   REMARKS
ALBERTVILLE    MOSUNNY   63  52  67 NW12      30.19S
FORT PAYNE     MOSUNNY   63  39  42 NW3       30.18S
SCOTTSBORO AP  SUNNY     66  41  39 NW6       30.19F
SCOTTSBORO HCN   N/A     64 N/A N/A MISG        N/A
VALLEY HEAD      N/A     61 N/A N/A MISG        N/A
$$

TNZ076-096-097-301900-
SOUTHEASTERN MIDDLE TENNESSEE

CITY           SKY/WX    TMP DP  RH WIND       PRES   REMARKS
TULLAHOMA      SUNNY     63  30  29 NW9       30.21R
WINCHESTER     SUNNY     63  34  34 NW10      30.20S
$$

...SURROUNDING SITES...

CITY           SKY/WX    TMP DP  RH WIND       PRES   REMARKS
ATLANTA        PTSUNNY   65  53  65 NW13      30.16F
ANNISTON       MOSUNNY   67  50  54 VRB6      30.18F
BIRMINGHAM     MOSUNNY   68  51  54 NW10      30.21F
CHATTANOOGA    MOSUNNY   65  37  35 NW13      30.16F
CORINTH        FAIR      64  39  39 CALM      30.21S
DALTON         MOSUNNY   63  45  51 NW7       30.17S
GADSDEN        SUNNY     66  46  48 W9G16     30.17F
GOLDEN TRNGL   MOSUNNY   70  52  52 NW3       30.20F
HALEYVILLE       N/A     64  45  50 CALM      30.23F
JACKSON TN     SUNNY     66  34  30 N5        30.22F
LEWISBURG      FAIR      64  36  35 N7        30.20F
MEMPHIS        MOSUNNY   68  38  33 N3        30.22F
MURFREESBORO   FAIR      63  29  27 NW9       30.19F
NASHVILLE      MOSUNNY   66  26  22 NW12G20   30.20F
OXFORD MS      FAIR      68  43  40 SE6       30.22F
ROME           MOSUNNY   66  46  48 VRB7G17   30.16F
SAVANNAH       SUNNY     66  37  34 N8        30.22S
TUPELO         SUNNY     68  44  42 CALM      30.20F
TUSCALOOSA     MOSUNNY   73  53  49 W8        30.19F
$$

...GULF COAST WEATHER...

CITY           SKY/WX    TMP DP  RH WIND       PRES   REMARKS
GULFPORT       PTSUNNY   77  63  61 S12       30.21F
PASCAGOULA     PTSUNNY   80  64  58 S10       30.21F
MOBILE         MOSUNNY   80  56  43 W13       30.21F
GULF SHORES    PTCLDY    75  65  70 SW13      30.23F
PENSACOLA      MOSUNNY   75  65  70 SW21G28   30.22F
DESTIN         SUNNY     73  64  73 SW12G20   30.23F
PANAMA CITY    PTSUNNY   72  62  71 SW10      30.24F
APPALACHICOLA  CLOUDY    72  56  57 S10       30.26F
$$



USA.gov is the U.S. government's official web portal to all federal, state and local government web resources and services.